Lid_Strength_Index
5 6 7 6 5 5 6 7 7 6 5 6 6 6 5 4 4 4 3 3 3 3 2 1 1 1 1 0 0 -0 -0 -0 -0 0 1 1 1 0 -0 -1 -2 -2 -2 -1
6 7 5 6 6 6 7 7 7 6 5 5 6 6 5 4 4 4 3 3 3 2 2 2 1 1 1 1 0 0 0 -0 -0 -0 -0 0 0 -0 -0 -0 -1 -2 -2 -2
7 6 6 6 7 8 7 7 7 7 6 5 6 7 6 5 4 3 3 3 3 3 2 2 2 2 1 1 1 0 0 -0 -0 -0 -0 -0 -0 -0 0 -0 -0 -1 -1 -1
6 5 6 7 7 6 8 6 6 7 7 9 6 10 7 5 5 4 4 3 3 3 2 2 2 2 1 1 0 0 0 0 -0 -0 -0 0 1 2 1 0 -0 -0 -1 -1
7 6 6 7 7 6 7 5 6 7 7 8 8 9 7 6 6 5 4 3 3 2 2 2 2 1 1 1 1 0 0 0 0 0 0 1 1 1 0 0 -0 -0 -0 -1
5 4 5 5 5 5 5 6 6 6 7 10 8 9 9 7 6 5 4 3 3 3 2 2 1 1 1 1 1 1 1 1 0 0 0 1 1 1 1 1 1 1 0 0
6 6 5 4 6 5 5 7 10 11 11 11 7 8 8 5 5 5 4 4 3 3 3 2 2 2 2 1 1 1 0 1 1 1 1 1 1 1 1 1 1 1 1 1
9 9 6 5 6 7 7 7 10 13 12 11 8 10 8 5 4 4 4 4 3 3 3 3 2 2 2 1 1 1 1 1 0 1 1 0 0 1 1 1 1 1 1 1
8 9 5 5 5 5 7 8 6 9 8 10 9 7 6 5 5 5 5 4 4 3 3 2 2 2 2 1 1 1 1 1 0 0 1 1 1 1 1 0 0 0 0 0
7 9 6 5 5 5 6 5 9 8 13 14 10 9 10 7 7 6 5 5 4 3 3 3 2 2 1 1 1 1 0 1 0 0 -0 0 0 0 0 0 1 0 0 0
6 7 7 6 7 7 7 8 7 7 9 12 12 10 7 7 7 6 5 5 4 3 3 3 2 2 1 1 1 1 1 1 1 1 0 -0 -0 0 0 1 0 0 0 0
6 7 10 8 5 5 6 7 7 10 10 9 10 10 6 6 5 5 5 4 4 3 3 2 2 2 2 1 1 1 1 1 0 0 0 1 0 0 0 1 0 0 0 0
6 8 11 10 7 6 7 7 7 7 8 11 12 10 6 5 5 5 5 4 4 3 3 2 2 2 2 1 1 1 1 1 0 0 0 0 1 1 1 1 0 0 0 0
6 7 9 11 9 7 9 8 7 7 10 10 10 9 6 7 7 6 5 4 4 3 3 3 3 2 2 2 2 2 2 2 1 1 1 1 1 1 1 1 1 0 0 1
6 10 8 8 7 7 8 8 8 9 8 10 8 8 7 6 6 5 4 4 4 4 3 3 3 3 3 3 3 2 2 2 2 2 1 1 0 1 1 1 1 1 1 1
6 9 8 9 8 8 9 9 9 9 9 9 8 8 6 5 5 5 5 4 5 4 3 3 3 4 4 3 3 3 3 2 2 2 2 1 1 1 1 1 1 1 1 1
7 8 9 11 8 9 11 8 8 8 7 7 10 7 5 6 6 5 5 5 6 5 4 4 4 4 4 4 3 3 2 1 1 1 1 1 1 1 1 1 1 1 2 1
7 8 8 10 9 13 8 6 7 8 7 6 7 6 6 7 6 6 5 5 6 5 5 5 4 4 3 3 3 2 2 2 2 2 2 1 1 1 1 1 1 2 1 2
6 7 9 11 11 9 8 7 8 8 8 7 7 7 7 6 6 6 5 4 5 4 4 3 3 2 2 1 1 1 1 1 1 2 2 1 1 1 1 2 2 1 2 2
6 6 9 10 12 14 9 7 6 7 11 6 7 7 7 7 10 8 4 4 3 2 2 2 1 1 1 1 1 1 1 1 2 1 1 1 1 1 1 2 2 1 1 2
9 9 10 10 11 9 7 7 6 11 10 7 7 7 7 7 6 4 3 2 2 2 2 1 1 2 2 1 1 2 2 2 1 1 1 1 1 1 1 1 1 1 2 2
9 10 10 9 11 13 7 7 9 7 6 6 6 5 5 4 4 3 3 3 3 3 2 2 2 2 1 1 1 3 3 1 1 1 1 1 1 1 1 1 1 2 2 2
10 8 10 9 9 6 6 7 6 6 6 5 5 4 4 4 4 4 4 4 3 3 3 2 2 2 1 1 1 2 2 1 2 1 1 1 1 1 1 1 2 2 2 3
7 7 9 9 8 7 7 6 6 5 5 4 4 3 4 5 4 4 4 4 3 3 3 2 2 3 3 2 1 1 1 1 2 2 2 1 1 2 1 1 1 2 2 3
7 7 9 9 8 7 7 6 5 4 3 3 3 3 4 3 4 4 3 4 3 3 3 2 2 2 2 2 2 1 1 1 2 2 2 2 1 1 2 1 2 2 2 4
7 8 9 9 7 7 6 5 4 4 4 3 4 3 3 3 4 4 4 3 3 3 3 2 2 3 2 2 2 2 1 1 2 2 2 2 2 2 2 2 2 7 7 9